OpenBCM V1.08-5-g2f4a (Linux)

Packet Radio Mailbox

IZ3LSV

[San Dona' di P. JN]

 Login: GUEST





  
I0OJJ  > KEPS     29.07.25 01:40l 343 Lines 16342 Bytes #39 (0) @ AMSAT
BID : ORB25210.1
Read: GUEST
Subj: 2Line Orbital Elements 25210.AMSAT
Path: IZ3LSV<IK6IHL<IK7NXU<HB9ON<HB9ON<PI8ZTM<IR0AAB<I0OJJ
Sent: 250729/0025z @:I0OJJ.ITA.EU [Rome] obcm1.08-10-g596e
From: I0OJJ @ I0OJJ.ITA.EU (Gustavo)
To:   KEPS @ AMSAT
X-Info: This message was generated automatically


QST de W1STR

AMSAT Orbital Elements for Amateur Satellites in TLE Format
From Orbital Analysis Office
New England Sci-Tech STEM Education Center
Natick, MA July 29, 2025
To all radio amateurs


These element sets describe the orbits of various satellites 
in use by the amateur radio community. For details see:
www.amsat.org/keplerian-elements-formats/

A daily update of element sets is available at:
www.amsat.org/tle/daily-bulletin.txt
or without bulletin text:
www.amsat.org/tle/dailytle.txt


AO-07
1 07530U 74089B   25209.49794429 -.00000046  00000-0  28498-5 0  9996
2 07530 101.9946 214.2844 0012450  30.5516 101.0979 12.53690430319951
UO-11
1 14781U 84021B   25209.84439084  .00001347  00000-0  14713-3 0  9998
2 14781  97.7577 175.2510 0008086 162.8094 197.3399 14.89502680229971
AO-27
1 22825U 93061C   25209.44878958  .00000099  00000-0  55147-4 0  9993
2 22825  98.7339 271.2412 0007841 337.0427  23.0404 14.30812568660705
FO-29
1 24278U 96046B   25209.69721729 -.00000037  00000-0 -47308-6 0  9999
2 24278  98.5687  97.1157 0349351 215.2123 142.5479 13.53250851429661
NOAA-15
1 25338U 98030A   25209.82356506  .00000181  00000-0  92131-4 0  9994
2 25338  98.5338 233.7658 0009639 209.1728 150.8915 14.27003279415429
GO-32
1 25397U 98043D   25209.51448348  .00000067  00000-0  48956-4 0  9994
2 25397  98.9736 189.6632 0002357  77.6090 282.5351 14.24325079405250
ISS
1 25544U 98067A   25209.84192790  .00012388  00000-0  22329-3 0  9991
2 25544  51.6345 100.6151 0001954 128.2115 231.9050 15.50179196521629
NO-44
1 26931U 01043C   25209.61464751  .00000145  00000-0  85432-4 0  9997
2 26931  67.0523   1.0565 0006423 276.6260  83.4111 14.31754277244129
SO-50
1 27607U 02058C   25209.62107043  .00000958  00000-0  13609-3 0  9992
2 27607  64.5528  49.1410 0061563 323.4384  36.2526 14.81741487216492
CO-55
1 27844U 03031E   25209.58347738  .00000301  00000-0  15020-3 0  9990
2 27844  98.6766 217.2258 0010587  50.3080 309.9031 14.24027666145613
CO-57
1 27848U 03031J   25209.55485305  .00000245  00000-0  12743-3 0  9990
2 27848  98.6793 217.1661 0010660  66.1617 294.0677 14.23357997145383
RS-22
1 27939U 03042A   25209.88536606  .00001081  00000-0  17869-3 0  9993
2 27939  98.3323  20.5409 0010786 208.3174 288.0848 14.72448904168081
CO-58
1 28895U 05043F   25209.35516916  .00001675  00000-0  28008-3 0  9998
2 28895  98.2561 354.3344 0015200 148.4754 211.7366 14.71147946 54113
CO-65
1 32785U 08021C   25209.81775078  .00005024  00000-0  35975-3 0  9990
2 32785  97.7873 181.3671 0010847  52.3642 307.8566 15.04822977936555
CO-66
1 32791U 08021J   25209.51082244  .00011481  00000-0  54074-3 0  9995
2 32791  97.7303 190.6835 0003916  32.2128 327.9345 15.19687584937929
RS-30
1 32953U 08025A   25209.81605960  .00000013  00000-0  26032-4 0  9991
2 32953  82.5019 196.5588 0018133 300.7289  59.2004 12.43166642779655
NOAA-19
1 33591U 09005A   25209.82858644  .00000172  00000-0  11557-3 0  9990
2 33591  98.9949 274.8038 0013121 221.1594 138.8589 14.13395335849061
SRMSAT
1 37841U 11058D   25209.75171911  .00000382  00000-0  63762-4 0  9999
2 37841  19.9704 216.9889 0011550 245.4116 283.1626 14.11447676712293
ZACUBE-1
1 39417U 13066B   25209.45241043  .00003051  00000-0  26551-3 0  9992
2 39417  97.7833 166.2272 0042057 248.1122 111.5625 14.97036991632222
Delfi-N3xt
1 39428U 13066N   25209.83096957  .00004366  00000-0  44236-3 0  9998
2 39428  97.8313 126.9440 0083409 197.2153 162.6232 14.88866938626587
GOMX-1
1 39430U 13066Q   25209.84428761  .00001864  00000-0  29354-3 0  9998
2 39430  97.6792  65.4765 0133138  35.2908 325.7022 14.67809099622633
LO-74
1 39440U 13066AA  25209.83298413  .00004287  00000-0  43193-3 0  9996
2 39440  97.8506 154.0644 0062189  19.0485 341.3038 14.90246100629976
AO-73
1 39444U 13066AE  25209.49232278  .00005430  00000-0  40246-3 0  9996
2 39444  97.7868 171.6185 0040336 218.3623 141.4732 15.02882371630931
DTUSAT-2
1 40030U 14033W   25209.44258100  .00005521  00000-0  35538-3 0  9990
2 40030  98.0584 183.6512 0007293 250.2482 109.7959 15.08797764603769
EO-80
1 40032U 14033Y   25209.46031979  .00006159  00000-0  39499-3 0  9995
2 40032  98.0470 183.2568 0008356 182.8132 177.3050 15.08872517603746
LILACSAT-2
1 40908U 15049K   25209.81666619  .00011311  00000-0  28625-3 0  9994
2 40908  97.5043 231.3805 0008259 356.2171   3.9011 15.39896950545803
IO-86
1 40931U 15052B   25151.18580175  .00001241  00000-0  78118-4 0  9996
2 40931   6.0006  24.0987 0012733 338.8432  21.1169 14.78805930523047
Horyu-4
1 41340U 16012D   25209.15736165  .00023989  00000-0  60335-3 0  9995
2 41340  30.9958 164.8191 0007183 213.3930 146.6263 15.38685421520275
Lapan A3
1 41603U 16040E   25209.87906269  .00003542  00000-0  12364-3 0  9993
2 41603  97.1381 212.5628 0012901  93.6104 266.6613 15.30146909505320
CAS-2T
1 41847U 16066G   25209.20211496  .00001101  00000-0  16451-3 0  9999
2 41847  98.4183 283.2354 0346208  31.5862 330.5608 14.43618390458038
CAS-4B
1 42759U 17034B   25209.82107813  .00091075  00000-0  72339-3 0  9999
2 42759  43.0057  27.0461 0023076 277.2976  82.5269 15.69884606450325
CAS-4A
1 42761U 17034D   25209.87084157  .00101014  00000-0  74129-3 0  9996
2 42761  43.0094  23.2652 0024119 282.1194  77.6972 15.71686405450365
TechnoSat
1 42829U 17042E   25209.74858107  .00004049  00000-0  31259-3 0  9997
2 42829  97.3918  16.1009 0017509 112.5281 247.7800 15.01969024438104
AO-91
1 43017U 17073E   25209.59159349  .00009008  00000-0  45459-3 0  9993
2 43017  97.5174  79.1256 0170509   0.0756   0.0467 15.05475447416583
S-Net D
1 43186U 18014G   25209.27265290  .00005042  00000-0  29533-3 0  9993
2 43186  97.5570 111.6826 0010561  63.5588 296.6725 15.12209870409735
S-Net B
1 43187U 18014H   25209.67572036  .00005164  00000-0  30248-3 0  9997
2 43187  97.5574 112.0556 0011138  57.8413 302.3897 15.12193674409794
S-Net A
1 43188U 18014J   25209.27287526  .00005022  00000-0  29413-3 0  9996
2 43188  97.5583 111.8134 0011056  59.7915 300.4409 15.12215160409738
S-Net C
1 43189U 18014K   25209.28122397  .00005121  00000-0  29997-3 0  9999
2 43189  97.5597 111.8442 0012405  52.2793 307.9560 15.12185361408285
Ten-Koh
1 43677U 18084G   25209.47104389  .00002205  00000-0  17882-3 0  9990
2 43677  98.0845  23.6609 0009080 101.5796 258.6446 15.00760084367579
PO-101
1 43678U 18084H   25209.80404185  .00001421  00000-0  12403-3 0  9998
2 43678  98.1068  27.8192 0008858 116.7500 243.4629 14.98516411367758
QO-100
1 43700U 18090A   25209.55524459  .00000139  00000-0  00000-0 0  9992
2 43700   0.0186  72.2225 0001053  54.1168  45.7718  1.00271724 24434
MinXSS-2
1 43758U 18099A   25209.43299196  .00013609  00000-0  51510-3 0  9999
2 43758  97.4985 275.6622 0010622 350.8873   9.2171 15.27003584364420
AO-95
1 43770U 18099N   25209.11170756  .00009505  00000-0  47031-3 0  9991
2 43770  97.4879 266.6754 0011362  50.6431 309.5807 15.17962610363917
RANGE-A
1 43773U 18099R   25209.86075832  .00004399  00000-0  27820-3 0  9995
2 43773  97.4449 256.8365 0011840  31.1814 329.0115 15.09468121363651
MOVE-II
1 43780U 18099Y   25194.80194206  .15913345  26116-5  37118-3 0  9995
2 43780  97.4526 273.8800 0018736 270.1080  89.8075 16.44566529363241
SNUSat 2
1 43782U 18099AA  25209.61751521  .00006343  00000-0  34070-3 0  9990
2 43782  97.4562 263.5236 0011248 352.1249   7.9805 15.15205103363923
SnugLite
1 43784U 18099AC  25209.39480180  .00007747  00000-0  38086-3 0  9997
2 43784  97.4373 262.9682 0003088  15.8192 344.3137 15.18302220364047
ITASat 1
1 43786U 18099AE  25209.87715209  .00006093  00000-0  34347-3 0  9994
2 43786  97.4531 263.1403 0015034  42.0778 318.1605 15.13452096363911
EAGLET 1
1 43790U 18099AJ  25209.87848409  .00003994  00000-0  25339-3 0  9996
2 43790  97.4731 262.9314 0012538  28.2542 331.9365 15.09401964363501
ESEO
1 43792U 18099AL  25209.61129203  .00002412  00000-0  18448-3 0  9991
2 43792  97.4439 255.2690 0012214 358.9401   1.1797 15.02760663363184
CSIM
1 43793U 18099AM  25209.82947487  .00438704  82313-4  97127-3 0  9996
2 43793  97.4689 292.0959 0007620 274.2327  85.8079 15.97927033365433
JO-97
1 43803U 18099AX  25209.12717088  .00011130  00000-0  49360-3 0  9998
2 43803  97.4625 267.7912 0006434 346.5867  13.5197 15.21746634364157
Suomi 100
1 43804U 18099AY  25209.68299040  .00008156  00000-0  39049-3 0  9990
2 43804  97.4692 267.4944 0011260 344.1415  15.9466 15.19159239364151
ISAT
1 43879U 18111D   25209.32861167  .00018577  00000-0  61194-3 0  9997
2 43879  97.5912 124.8433 0009329  40.5540 319.6394 15.31488820361153
UWE-4
1 43880U 18111E   25209.57360427  .00014907  00000-0  56187-3 0  9998
2 43880  97.5860 123.2175 0012902  46.9716 313.2601 15.27097405361105
Sparrow
1 43881U 18111F   25209.33510133  .00019799  00000-0  62549-3 0  9997
2 43881  97.6063 127.9227 0008743  75.7515 284.4697 15.32823593361257
Prox-1
1 44339U 19036A   25209.82494224  .00010796  00000-0  13353-2 0  9995
2 44339  23.9965  98.1160 0007394 273.5407  86.4245 14.80776041325417
SONATE
1 44400U 19038Q   25185.47540524  .09032085  27445-5  31847-3 0  9995
2 44400  97.6609 216.4776 0012462 246.7970 113.2018 16.43248376333575
Taurus 1
1 44530U 19059C   25209.79781306  .00005913  00000-0  10801-2 0  9999
2 44530  98.6123 351.5549 0008543 236.7290 123.3094 14.66312389311154
Duchifat 3
1 44854U 19089C   25209.82411858  .00055421  00000-0  94051-3 0  9996
2 44854  36.9422  41.2152 0006320 345.1123  14.9448 15.50427435310581
TO-108
1 44881U 19093C   25209.86184314  .00000948  00000-0  11534-3 0  9998
2 44881  97.7907 284.4789 0015147  72.0752 288.2113 14.85684218303399
